Location: Unspecified
(0.0000°N, 0.0000°E)
Time: 19:16:35
(UTC+00:00)

Vanguard 1 - Pass Details

Date: 09 December 2017
Orbit: 650 x 3833 km, 34.3° (Epoch: 17 June)

Event Time Altitude Azimuth Distance (km) Brightness Sun altitude
Rises 06:54:51 0° 234° (SW) 7,325 14.2 14.4°
Reaches altitude 10° 06:59:21 10° 234° (SW) 6,551 14.0 15.4°
Maximum altitude 07:22:50 85° 321° (NW) 3,763 13.3 20.8°
Drops below altitude 10° 07:42:44 10° 50° (NE) 5,705 14.4 25.3°
Sets 07:46:20 0° 51° (NE) 6,390 14.5 26.1°
